Lapse_Rate
7.7 7.8 8.0 7.7 7.3 7.9 8.7 9.4 9.8 9.6 8.9 9.0 9.1 9.1 9.8 9.8 9.7 9.6 9.2 9.1 8.1 8.0 7.2 7.7 7.2 7.0 7.0 7.1 7.0 6.8 6.6 6.4
8.1 8.3 7.9 7.9 8.0 8.0 8.7 9.0 9.3 9.7 9.6 9.0 9.1 9.0 9.4 9.5 9.7 9.7 9.4 9.1 8.4 8.0 7.4 8.0 7.6 7.2 6.9 7.0 6.9 6.9 6.7 6.4
9.3 8.3 7.8 7.9 8.7 8.3 8.4 8.5 9.6 9.5 9.7 9.6 9.3 9.1 9.4 9.4 9.3 9.7 9.5 9.2 8.6 8.0 7.5 8.0 7.8 7.2 7.1 6.9 7.0 6.8 6.8 6.8
9.5 9.3 8.7 8.1 7.9 8.0 7.9 8.2 9.1 9.2 9.5 9.3 9.5 9.4 9.3 9.2 9.4 9.4 9.7 9.2 8.9 8.2 7.7 7.3 8.0 7.7 7.4 7.2 7.3 7.4 7.2 7.0
9.0 9.7 9.2 8.3 8.1 8.3 8.5 8.6 8.7 9.1 9.6 9.2 9.2 9.5 9.3 8.8 9.6 9.5 9.5 9.6 9.3 8.4 8.0 7.2 7.8 8.0 7.9 7.7 7.7 7.4 7.1 7.0
9.1 8.7 9.4 9.3 9.3 8.9 9.1 8.2 8.9 9.1 9.3 8.9 8.9 9.0 9.1 8.6 8.7 8.8 9.0 9.4 9.2 8.8 8.3 7.6 7.3 8.0 8.1 8.1 8.0 7.8 7.8 7.5
8.7 9.3 9.6 9.2 8.6 8.8 8.0 8.7 8.6 9.6 9.6 9.0 8.8 8.5 8.8 8.6 8.7 9.1 9.1 9.4 9.5 9.1 8.5 8.0 7.8 7.5 7.5 7.9 8.0 7.9 7.9 7.8
8.5 8.6 9.1 9.5 9.4 8.7 9.4 9.1 9.6 9.3 9.7 9.1 8.9 7.9 8.2 8.0 7.8 8.0 7.9 8.4 8.5 8.7 8.1 7.6 7.6 7.5 7.5 7.4 7.6 8.0 8.1 8.0
7.4 7.6 8.4 9.3 9.6 9.5 9.6 9.6 9.6 9.2 9.4 9.2 8.9 8.8 8.0 7.8 7.6 7.4 7.3 7.5 7.5 7.7 8.0 8.1 7.8 7.6 8.0 8.2 8.2 8.1 8.2 8.5
6.8 7.7 8.3 8.8 9.2 9.2 9.6 9.7 9.7 9.4 9.5 9.7 9.5 9.2 8.3 7.2 7.2 7.2 7.2 7.3 7.5 7.5 7.6 7.9 8.1 8.0 8.2 8.6 8.6 8.5 8.5 8.6
7.1 7.6 8.1 8.8 8.7 8.9 9.2 9.7 9.7 9.7 9.3 9.3 9.1 8.9 8.4 7.0 7.1 6.9 6.9 6.9 7.1 7.4 7.7 7.9 7.8 8.1 8.2 8.1 8.2 8.2 8.2 8.6
6.9 7.6 8.3 8.7 9.0 9.0 9.2 9.0 8.8 9.0 8.9 8.5 8.4 8.5 8.1 6.8 6.7 6.6 6.3 6.3 6.3 6.5 6.9 7.5 7.6 7.8 7.7 7.5 7.6 8.4 8.8 8.9
6.9 6.8 8.1 7.5 8.2 8.7 9.1 7.3 7.4 8.2 8.6 8.4 8.1 7.6 5.6 6.3 6.8 6.8 6.8 6.8 6.9 7.1 7.0 7.0 6.8 7.0 7.2 7.3 7.3 8.2 8.7 8.7
7.4 7.5 7.2 7.0 7.6 7.7 6.4 6.2 7.0 7.1 6.4 6.4 6.4 5.8 5.1 5.7 6.5 6.7 7.0 7.1 6.9 6.8 6.9 6.8 6.9 6.9 7.1 7.6 7.9 8.0 8.0 8.5
7.6 7.5 7.3 6.9 6.4 6.0 6.1 6.1 6.4 5.6 5.2 4.3 4.2 4.6 4.5 6.0 6.9 6.8 6.8 6.7 6.7 6.7 6.6 6.4 6.8 6.9 7.1 7.5 7.6 7.7 7.7 8.0
6.9 6.9 6.7 6.6 6.5 6.2 5.9 5.7 5.5 4.7 4.6 3.8 3.6 4.2 5.9 6.6 6.8 6.2 5.4 6.3 6.8 6.8 6.8 6.3 7.1 7.2 7.3 7.4 7.6 7.7 7.7 7.7
6.8 6.8 6.4 6.0 5.9 5.1 5.3 5.0 4.5 4.5 4.2 3.4 4.7 5.8 6.1 5.6 5.9 6.1 6.3 6.7 6.8 6.8 6.8 7.1 7.4 7.4 7.4 7.5 7.5 7.6 7.7 7.7
6.7 6.8 6.3 5.9 5.7 5.0 4.6 4.9 4.4 4.5 4.6 5.5 5.9 5.8 5.4 4.9 5.8 6.3 6.3 6.4 6.5 6.6 6.9 7.1 7.3 7.5 7.5 7.5 7.6 7.7 7.8 7.7
5.4 5.3 5.3 4.8 5.0 5.0 4.4 4.9 5.1 5.3 5.1 6.2 5.8 6.0 5.8 5.9 6.3 6.5 6.6 6.5 6.4 6.6 6.8 7.2 7.3 7.3 7.4 7.5 7.7 7.8 7.7 7.9
Wind_Speed
33 26 26 23 25 24 21 20 16 18 25 22 25 24 21 16 22 23 24 22 26 25 24 23 22 23 23 24 23 22 22 18
33 26 28 27 22 21 17 20 19 19 22 19 22 25 22 16 16 20 22 21 23 24 24 23 24 22 22 22 24 25 23 20
29 31 27 22 21 25 19 16 14 13 14 17 25 22 21 22 18 18 20 22 22 23 23 24 22 21 22 21 22 21 22 22
27 27 30 28 28 25 13 22 15 14 4 12 15 21 17 12 21 15 15 20 21 22 22 22 23 22 23 22 21 22 21 20
26 23 29 32 29 26 22 18 19 14 7 8 11 12 16 16 18 19 13 15 19 21 20 22 23 23 23 23 23 20 19 19
19 21 19 27 29 28 25 17 16 18 7 8 8 4 10 13 9 11 12 10 17 18 20 20 21 21 21 22 21 21 20 20
29 24 22 26 27 29 30 21 22 18 18 15 11 9 9 9 5 9 12 8 9 13 16 19 17 19 19 20 20 21 21 21
17 22 19 18 31 29 29 29 23 24 18 19 15 11 10 12 8 8 8 5 4 4 3 5 10 14 19 18 18 19 19 22
16 17 21 19 16 28 26 24 24 20 17 17 20 17 14 12 8 6 2 1 3 2 5 5 6 8 14 15 14 14 18 18
11 13 18 12 13 13 21 23 23 18 16 13 14 15 12 9 6 5 4 5 4 7 7 7 10 13 9 12 12 12 10 12
6 8 9 13 14 16 9 15 20 21 16 12 12 10 9 7 2 3 5 7 7 9 9 8 10 11 15 15 15 15 15 13
9 6 12 6 14 3 16 9 21 10 0 5 6 4 9 14 13 12 11 10 9 12 11 6 1 5 6 13 12 15 16 15
8 6 3 13 19 9 13 6 16 21 9 4 8 11 10 10 11 11 10 9 7 7 9 5 6 7 7 4 8 14 14 12
11 9 2 22 11 8 8 12 16 17 19 15 15 12 12 13 13 13 12 11 9 6 6 7 3 4 6 6 4 5 8 12
12 11 4 10 7 7 11 10 12 13 14 13 11 13 13 12 14 15 11 6 8 9 6 5 3 5 4 5 4 4 5 7
9 16 11 9 12 10 10 9 9 10 13 13 14 14 16 15 14 15 14 8 9 12 7 7 6 6 3 4 2 3 4 5
15 15 15 14 14 13 13 14 13 10 13 11 12 15 15 10 11 14 12 13 12 10 4 5 5 5 5 5 6 2 2 4
13 16 14 15 16 14 16 14 14 14 12 12 13 12 15 9 9 12 11 9 9 7 4 6 6 5 5 3 4 4 6 5
10 20 21 20 19 21 15 17 14 15 11 12 13 14 17 10 7 9 12 11 8 4 5 4 2 3 1 1 3 4 3 3
Wind_Direction
228 210 214 199 214 217 227 220 224 217 223 241 223 243 246 220 189 186 186 182 173 172 178 180 184 186 185 184 188 189 193 195
203 215 216 228 197 217 228 240 226 225 218 210 219 213 227 218 226 189 182 178 171 174 177 179 186 185 188 186 189 190 191 197
220 206 207 207 208 209 228 235 239 248 230 199 200 201 203 207 217 199 188 175 173 173 179 182 181 183 189 192 189 194 196 197
231 209 206 212 216 201 220 216 245 270 322 22 171 181 188 217 186 212 198 173 172 172 178 176 181 185 190 192 196 197 197 200
241 213 193 212 206 223 207 233 222 243 230 85 48 155 182 194 189 193 201 191 175 169 179 181 184 187 189 193 199 194 197 201
226 224 202 193 212 207 222 210 227 222 151 129 121 143 156 168 191 199 192 205 172 177 179 184 187 188 190 191 194 195 193 200
237 234 214 194 209 212 211 217 218 215 209 140 145 130 133 108 97 172 167 166 154 188 176 185 181 184 190 192 190 193 198 198
258 251 258 257 197 213 210 221 208 237 215 139 128 130 124 102 81 65 46 114 141 137 128 135 169 174 185 193 192 192 196 203
247 251 253 244 228 198 217 207 220 218 235 143 147 149 144 143 126 117 156 328 327 182 174 187 191 175 178 189 192 193 198 202
271 266 242 239 228 253 219 215 212 222 231 164 148 141 114 110 133 164 220 248 270 242 226 246 200 205 192 179 191 203 202 204
265 240 227 230 229 220 242 203 218 206 230 102 83 103 85 70 34 273 277 288 285 266 264 221 195 209 196 198 187 193 207 212
309 275 217 220 250 225 211 222 0 335 34 117 120 181 76 35 23 11 353 358 345 338 346 287 261 248 157 190 185 196 208 211
239 268 28 324 350 117 204 36 8 9 26 8 54 48 48 29 14 355 332 317 315 320 312 339 355 350 336 260 201 199 203 205
238 241 212 2 20 38 63 38 29 19 27 28 21 20 16 16 2 341 324 315 301 274 278 290 325 303 286 276 285 304 181 191
233 227 38 10 10 42 33 43 20 23 7 352 0 3 5 9 350 326 302 312 352 324 324 307 93 350 318 297 282 259 203 170
286 283 313 332 330 345 5 348 1 351 340 352 357 352 355 3 340 335 344 13 342 320 302 69 33 357 317 353 323 224 206 161
305 278 290 299 305 315 317 321 318 337 319 340 340 339 337 337 328 322 339 355 342 327 8 52 32 11 13 6 336 239 186 163
286 309 313 313 322 297 287 278 275 290 305 314 319 317 311 326 339 323 311 313 314 319 352 44 36 13 339 7 333 313 176 182
303 312 314 309 302 288 312 312 277 280 276 284 300 302 299 307 313 298 285 278 276 325 70 71 38 279 307 43 56 30 54 35